N1469B KSAN-KLAS

Flight info

Callsign N1469B
Flight time 1h 4m
Altitude 29000
Route PADRZ2 CHKNN SEBBY YELAH MISEN RNDRZ4
Aircraft HDJT/L-SABDGRWY/H

Departure

Time 2026-05-06 22:39
Airport San Diego International Airport (KSAN)

Arrival

Time 2026-05-06 23:44
Airport Harry Reid International Airport (KLAS)
Time Latitude Longitude Altitude Speed Heading
2026-05-06 22:16 32.73358 -117.17899 22 ft 0 kts 14°
2026-05-06 22:36 32.73383 -117.17905 15 ft 7 kts 276°
2026-05-06 22:36 32.73339 -117.17955 19 ft 8 kts 204°
2026-05-06 22:37 32.73265 -117.17977 17 ft 15 kts 197°
2026-05-06 22:37 32.73212 -117.17897 15 ft 14 kts 107°
2026-05-06 22:37 32.73182 -117.17772 17 ft 16 kts 106°
2026-05-06 22:37 32.73157 -117.17673 17 ft 7 kts 106°
2026-05-06 22:38 32.73134 -117.17583 16 ft 13 kts 122°
2026-05-06 22:38 32.73086 -117.17540 17 ft 8 kts 148°
2026-05-06 22:38 32.73017 -117.17537 18 ft 6 kts 244°
2026-05-06 22:38 32.73026 -117.17600 17 ft 18 kts 286°
2026-05-06 22:39 32.73116 -117.17969 13 ft 87 kts 287°
2026-05-06 22:39 32.73345 -117.18912 157 ft 135 kts 288°
2026-05-06 22:39 32.73624 -117.20059 609 ft 155 kts 286°
2026-05-06 22:39 32.73915 -117.21348 1137 ft 168 kts 285°
2026-05-06 22:40 32.74218 -117.22722 1706 ft 180 kts 285°
2026-05-06 22:40 32.74582 -117.24221 2302 ft 197 kts 289°
2026-05-06 22:40 32.75037 -117.25818 3019 ft 210 kts 291°
2026-05-06 22:40 32.75550 -117.27492 3681 ft 221 kts 291°
2026-05-06 22:41 32.77579 -117.30472 4600 ft 252 kts 327°
2026-05-06 22:41 32.79128 -117.31432 5392 ft 252 kts 333°
2026-05-06 22:41 32.80481 -117.32777 6175 ft 257 kts 315°
2026-05-06 22:42 32.81643 -117.34407 6963 ft 259 kts 312°
2026-05-06 22:42 32.82760 -117.36061 7746 ft 261 kts 310°
2026-05-06 22:42 32.83846 -117.37794 8582 ft 262 kts 309°
2026-05-06 22:42 32.84936 -117.39530 9442 ft 262 kts 310°
2026-05-06 22:43 32.86057 -117.41272 9976 ft 273 kts 311°
2026-05-06 22:43 32.87228 -117.43087 9970 ft 277 kts 310°
2026-05-06 22:43 32.88393 -117.44907 9969 ft 276 kts 310°
2026-05-06 22:43 32.89524 -117.46673 9932 ft 269 kts 310°
2026-05-06 22:44 32.90654 -117.48426 9893 ft 259 kts 310°
2026-05-06 22:44 32.91727 -117.50110 9983 ft 243 kts 310°
2026-05-06 22:44 32.92716 -117.51683 10633 ft 238 kts 311°
2026-05-06 22:44 32.93727 -117.53238 11289 ft 244 kts 311°
2026-05-06 22:45 32.94773 -117.54852 11964 ft 249 kts 311°
2026-05-06 22:45 32.95843 -117.56497 12671 ft 253 kts 311°
2026-05-06 22:45 32.96926 -117.58172 13387 ft 258 kts 311°
2026-05-06 22:45 32.98019 -117.59889 14005 ft 267 kts 311°
2026-05-06 22:46 32.99202 -117.61734 13911 ft 291 kts 311°
2026-05-06 22:46 33.00450 -117.63689 13796 ft 298 kts 310°
2026-05-06 22:46 33.01697 -117.65649 13773 ft 297 kts 311°
2026-05-06 22:46 33.02934 -117.67582 13774 ft 297 kts 311°
2026-05-06 22:47 33.04187 -117.69539 13773 ft 297 kts 311°
2026-05-06 22:47 33.05439 -117.71499 13773 ft 297 kts 311°
2026-05-06 22:47 33.06777 -117.73362 13772 ft 294 kts 321°
2026-05-06 22:47 33.08336 -117.74924 13771 ft 293 kts 323°
2026-05-06 22:48 33.09887 -117.76504 13772 ft 293 kts 323°
2026-05-06 22:48 33.11392 -117.78058 14014 ft 271 kts 323°
2026-05-06 22:48 33.12765 -117.79460 14482 ft 255 kts 324°
2026-05-06 22:48 33.14145 -117.80820 14943 ft 259 kts 325°
2026-05-06 22:49 33.15517 -117.82184 15409 ft 261 kts 324°
2026-05-06 22:49 33.16893 -117.83612 15895 ft 263 kts 324°
2026-05-06 22:49 33.18276 -117.85049 16383 ft 264 kts 324°
2026-05-06 22:49 33.19677 -117.86476 16916 ft 264 kts 327°
2026-05-06 22:50 33.21117 -117.87859 17559 ft 268 kts 326°
2026-05-06 22:50 33.22562 -117.89279 18216 ft 270 kts 326°
2026-05-06 22:50 33.24019 -117.90706 18809 ft 272 kts 326°
2026-05-06 22:50 33.25490 -117.92140 19393 ft 274 kts 326°
2026-05-06 22:51 33.26952 -117.93565 19983 ft 276 kts 326°
2026-05-06 22:51 33.28445 -117.95024 20588 ft 278 kts 326°
2026-05-06 22:51 33.29948 -117.96491 21204 ft 280 kts 326°
2026-05-06 22:51 33.31464 -117.97974 21838 ft 283 kts 326°
2026-05-06 22:52 33.32996 -117.99470 22474 ft 285 kts 326°
2026-05-06 22:52 33.34539 -118.00980 23141 ft 288 kts 326°
2026-05-06 22:52 33.36097 -118.02505 23787 ft 291 kts 326°
2026-05-06 22:52 33.37670 -118.04045 24356 ft 293 kts 326°
2026-05-06 22:53 33.39254 -118.05597 24921 ft 295 kts 327°
2026-05-06 22:53 33.40844 -118.07156 25515 ft 296 kts 327°
2026-05-06 22:53 33.42417 -118.08699 26107 ft 296 kts 327°
2026-05-06 22:53 33.44011 -118.10263 26715 ft 296 kts 327°
2026-05-06 22:54 33.45599 -118.11822 27342 ft 295 kts 327°
2026-05-06 22:54 33.47180 -118.13382 28006 ft 293 kts 328°
2026-05-06 22:54 33.48750 -118.14927 28672 ft 290 kts 328°
2026-05-06 22:54 33.50413 -118.16235 29108 ft 288 kts 341°
2026-05-06 22:55 33.52336 -118.17026 29115 ft 298 kts 355°
2026-05-06 22:55 33.54430 -118.17202 29113 ft 308 kts
2026-05-06 22:55 33.56568 -118.16735 29112 ft 318 kts 20°
2026-05-06 22:55 33.58612 -118.15635 29107 ft 327 kts 32°
2026-05-06 22:56 33.60411 -118.13981 29102 ft 334 kts 44°
2026-05-06 22:56 33.63507 -118.09803 29094 ft 335 kts 46°
2026-05-06 22:57 33.66863 -118.05939 29090 ft 334 kts 42°
2026-05-06 22:57 33.70194 -118.02039 29098 ft 334 kts 44°
2026-05-06 22:58 33.73521 -117.98140 29097 ft 334 kts 43°
2026-05-06 22:58 33.76828 -117.94267 29056 ft 334 kts 44°
2026-05-06 22:59 33.80158 -117.90359 29067 ft 334 kts 43°
2026-05-06 22:59 33.83491 -117.86456 29067 ft 334 kts 43°
2026-05-06 23:00 33.86803 -117.82529 29065 ft 334 kts 44°
2026-05-06 23:00 33.90109 -117.78649 29065 ft 334 kts 43°
2026-05-06 23:01 33.93440 -117.74727 29067 ft 337 kts 44°
2026-05-06 23:01 33.96791 -117.70773 29069 ft 337 kts 44°
2026-05-06 23:02 34.00142 -117.66816 29051 ft 337 kts 44°
2026-05-06 23:02 34.03488 -117.62857 29051 ft 337 kts 44°
2026-05-06 23:03 34.06815 -117.58919 29048 ft 337 kts 44°
2026-05-06 23:03 34.10159 -117.54954 29048 ft 337 kts 44°
2026-05-06 23:04 34.13503 -117.50985 29053 ft 337 kts 44°
2026-05-06 23:04 34.16281 -117.47683 29048 ft 337 kts 44°
2026-05-06 23:05 34.19616 -117.43717 29052 ft 337 kts 44°
2026-05-06 23:05 34.23491 -117.39101 29052 ft 337 kts 44°
2026-05-06 23:06 34.26285 -117.35764 29051 ft 336 kts 44°
2026-05-06 23:06 34.29588 -117.31830 29046 ft 336 kts 44°
2026-05-06 23:07 34.32905 -117.27861 29041 ft 336 kts 44°
2026-05-06 23:07 34.36226 -117.23889 29034 ft 336 kts 44°
2026-05-06 23:08 34.39545 -117.19912 29025 ft 336 kts 44°
2026-05-06 23:08 34.42864 -117.15932 29024 ft 335 kts 44°
2026-05-06 23:09 34.46150 -117.11986 29017 ft 335 kts 44°
2026-05-06 23:09 34.49455 -117.08010 29010 ft 334 kts 44°
2026-05-06 23:10 34.52763 -117.04034 29010 ft 335 kts 44°
2026-05-06 23:10 34.56067 -117.00051 29018 ft 335 kts 44°
2026-05-06 23:11 34.59374 -116.96061 28992 ft 336 kts 44°
2026-05-06 23:11 34.62681 -116.92059 29008 ft 336 kts 44°
2026-05-06 23:12 34.65969 -116.88090 29018 ft 336 kts 44°
2026-05-06 23:12 34.69279 -116.84081 29021 ft 336 kts 44°
2026-05-06 23:13 34.72591 -116.80065 29028 ft 336 kts 44°
2026-05-06 23:13 34.75903 -116.76045 29031 ft 337 kts 44°
2026-05-06 23:14 34.79214 -116.72023 29031 ft 336 kts 44°
2026-05-06 23:14 34.82498 -116.68027 29031 ft 336 kts 44°
2026-05-06 23:15 34.85842 -116.64051 29022 ft 336 kts 39°
2026-05-06 23:15 34.89511 -116.60526 29009 ft 336 kts 39°
2026-05-06 23:16 34.93165 -116.56967 29002 ft 337 kts 38°
2026-05-06 23:16 34.96812 -116.53440 29002 ft 337 kts 38°
2026-05-06 23:17 35.00475 -116.49880 28988 ft 337 kts 38°
2026-05-06 23:17 35.04144 -116.46317 28979 ft 337 kts 38°
2026-05-06 23:18 35.07808 -116.42749 28987 ft 337 kts 38°
2026-05-06 23:18 35.11331 -116.38979 28992 ft 337 kts 46°
2026-05-06 23:19 35.14507 -116.34863 28656 ft 321 kts 45°
2026-05-06 23:19 35.16000 -116.32948 28248 ft 310 kts 45°
2026-05-06 23:19 35.17453 -116.31064 27844 ft 299 kts 45°
2026-05-06 23:19 35.18857 -116.29243 27455 ft 290 kts 45°
2026-05-06 23:20 35.20222 -116.27477 27069 ft 282 kts 45°
2026-05-06 23:20 35.21578 -116.25724 26715 ft 295 kts 45°
2026-05-06 23:20 35.23022 -116.23831 26300 ft 304 kts 47°
2026-05-06 23:20 35.24402 -116.21925 25904 ft 295 kts 46°
2026-05-06 23:21 35.25735 -116.20103 25525 ft 287 kts 46°
2026-05-06 23:21 35.27055 -116.18305 25149 ft 282 kts 46°
2026-05-06 23:21 35.28350 -116.16532 24782 ft 277 kts 46°
2026-05-06 23:21 35.29630 -116.14774 24417 ft 276 kts 46°
2026-05-06 23:22 35.30909 -116.13021 24063 ft 276 kts 46°
2026-05-06 23:22 35.32184 -116.11272 23700 ft 275 kts 46°
2026-05-06 23:22 35.33453 -116.09531 23309 ft 273 kts 46°
2026-05-06 23:22 35.34714 -116.07799 22939 ft 272 kts 46°
2026-05-06 23:23 35.35968 -116.06076 22583 ft 270 kts 46°
2026-05-06 23:23 35.37215 -116.04362 22228 ft 268 kts 46°
2026-05-06 23:23 35.38455 -116.02656 21873 ft 268 kts 46°
2026-05-06 23:23 35.39673 -116.00977 21540 ft 267 kts 46°
2026-05-06 23:24 35.40903 -115.99288 21190 ft 265 kts 46°
2026-05-06 23:24 35.42127 -115.97604 20843 ft 264 kts 46°
2026-05-06 23:24 35.43344 -115.95924 20492 ft 263 kts 46°
2026-05-06 23:24 35.44557 -115.94253 20154 ft 262 kts 46°
2026-05-06 23:25 35.45768 -115.92582 19798 ft 261 kts 46°
2026-05-06 23:25 35.46971 -115.90921 19462 ft 260 kts 46°
2026-05-06 23:25 35.48168 -115.89269 19122 ft 259 kts 46°
2026-05-06 23:25 35.49360 -115.87621 18792 ft 258 kts 46°
2026-05-06 23:26 35.50548 -115.85980 18453 ft 257 kts 47°
2026-05-06 23:26 35.51714 -115.84367 18097 ft 255 kts 47°
2026-05-06 23:26 35.52889 -115.82742 17745 ft 254 kts 47°
2026-05-06 23:26 35.54059 -115.81123 17407 ft 253 kts 47°
2026-05-06 23:27 35.55224 -115.79510 17072 ft 252 kts 47°
2026-05-06 23:27 35.56383 -115.77904 16742 ft 250 kts 47°
2026-05-06 23:27 35.57535 -115.76308 16422 ft 249 kts 47°
2026-05-06 23:27 35.58683 -115.74711 16097 ft 256 kts 47°
2026-05-06 23:28 35.59936 -115.72987 16028 ft 283 kts 47°
2026-05-06 23:28 35.61302 -115.71160 16030 ft 297 kts 46°
2026-05-06 23:28 35.62689 -115.69302 16029 ft 298 kts 46°
2026-05-06 23:28 35.64080 -115.67419 16028 ft 298 kts 47°
2026-05-06 23:29 35.65474 -115.65533 16024 ft 298 kts 47°
2026-05-06 23:29 35.66869 -115.63649 16037 ft 298 kts 46°
2026-05-06 23:29 35.68258 -115.61770 16031 ft 296 kts 46°
2026-05-06 23:29 35.69643 -115.59894 16032 ft 296 kts 46°
2026-05-06 23:30 35.71028 -115.58020 16031 ft 296 kts 46°
2026-05-06 23:30 35.72447 -115.56181 16030 ft 296 kts 41°
2026-05-06 23:30 35.74098 -115.54683 16033 ft 295 kts 31°
2026-05-06 23:30 35.75865 -115.53462 16034 ft 296 kts 30°
2026-05-06 23:31 35.77653 -115.52208 15842 ft 295 kts 30°
2026-05-06 23:31 35.79428 -115.50953 15480 ft 294 kts 30°
2026-05-06 23:31 35.81200 -115.49709 15098 ft 292 kts 30°
2026-05-06 23:31 35.82959 -115.48478 14716 ft 290 kts 30°
2026-05-06 23:32 35.84716 -115.47251 14326 ft 289 kts 29°
2026-05-06 23:32 35.86450 -115.46030 13946 ft 286 kts 29°
2026-05-06 23:32 35.88175 -115.44817 13545 ft 286 kts 29°
2026-05-06 23:32 35.89902 -115.43606 13163 ft 286 kts 29°
2026-05-06 23:33 35.91629 -115.42393 12847 ft 285 kts 28°
2026-05-06 23:33 35.93362 -115.41185 12606 ft 286 kts 28°
2026-05-06 23:33 35.95095 -115.39979 12354 ft 286 kts 28°
2026-05-06 23:33 35.96804 -115.38785 12106 ft 287 kts 30°
2026-05-06 23:34 35.98399 -115.37315 11854 ft 288 kts 42°
2026-05-06 23:34 35.99702 -115.35430 11603 ft 290 kts 54°
2026-05-06 23:34 36.00650 -115.33224 11349 ft 292 kts 66°
2026-05-06 23:34 36.01186 -115.30806 11101 ft 293 kts 77°
2026-05-06 23:35 36.01282 -115.28279 10843 ft 297 kts 89°
2026-05-06 23:35 36.01142 -115.25736 10581 ft 297 kts 90°
2026-05-06 23:35 36.01022 -115.23254 10331 ft 281 kts 89°
2026-05-06 23:35 36.00918 -115.20907 10084 ft 267 kts 89°
2026-05-06 23:36 36.00962 -115.18695 10024 ft 247 kts 76°
2026-05-06 23:36 36.01537 -115.16783 10184 ft 237 kts 54°
2026-05-06 23:36 36.02558 -115.15192 9783 ft 236 kts 38°
2026-05-06 23:36 36.03865 -115.14032 9497 ft 231 kts 28°
2026-05-06 23:37 36.05256 -115.13033 9004 ft 231 kts 26°
2026-05-06 23:37 36.06718 -115.12245 8606 ft 228 kts 18°
2026-05-06 23:37 36.08205 -115.11558 8196 ft 229 kts 22°
2026-05-06 23:37 36.09676 -115.10783 7764 ft 230 kts 20°
2026-05-06 23:38 36.11168 -115.10015 7283 ft 239 kts 21°
2026-05-06 23:38 36.12808 -115.09219 6690 ft 264 kts 20°
2026-05-06 23:38 36.14523 -115.08415 6387 ft 262 kts 20°
2026-05-06 23:38 36.16216 -115.07638 5742 ft 264 kts 19°
2026-05-06 23:39 36.17913 -115.06843 5407 ft 254 kts 21°
2026-05-06 23:39 36.19484 -115.06041 5363 ft 237 kts 22°
2026-05-06 23:39 36.20959 -115.05221 5194 ft 230 kts 23°
2026-05-06 23:39 36.22429 -115.04426 4828 ft 232 kts 23°
2026-05-06 23:40 36.23949 -115.03782 4590 ft 228 kts 11°
2026-05-06 23:40 36.25514 -115.03939 4697 ft 231 kts 336°
2026-05-06 23:40 36.26631 -115.05289 4717 ft 230 kts 290°
2026-05-06 23:40 36.26604 -115.07212 4720 ft 228 kts 245°
2026-05-06 23:41 36.25469 -115.08627 4714 ft 249 kts 202°
2026-05-06 23:41 36.23749 -115.09045 4767 ft 263 kts 186°
2026-05-06 23:41 36.21906 -115.09351 4850 ft 264 kts 194°
2026-05-06 23:41 36.20186 -115.10011 4761 ft 248 kts 200°
2026-05-06 23:42 36.18649 -115.10736 4603 ft 236 kts 202°
2026-05-06 23:42 36.17160 -115.11543 4151 ft 228 kts 203°
2026-05-06 23:42 36.15758 -115.12314 3771 ft 211 kts 204°
2026-05-06 23:42 36.14514 -115.13040 3399 ft 189 kts 204°
2026-05-06 23:43 36.13347 -115.13693 3104 ft 180 kts 204°
2026-05-06 23:43 36.12280 -115.14302 2819 ft 161 kts 205°
2026-05-06 23:43 36.11321 -115.14882 2564 ft 147 kts 203°
2026-05-06 23:43 36.10416 -115.15385 2315 ft 137 kts 202°
2026-05-06 23:44 36.09592 -115.15857 2118 ft 123 kts 203°
2026-05-06 23:44 36.08912 -115.16247 2120 ft 91 kts 205°
2026-05-06 23:44 36.08504 -115.16503 2134 ft 39 kts 215°
2026-05-06 23:44 36.08391 -115.16641 2143 ft 12 kts 233°
2026-05-06 23:45 36.08353 -115.16701 2148 ft 7 kts 229°
2026-05-06 23:45 36.08320 -115.16733 2150 ft 7 kts 213°
2026-05-06 23:45 36.08270 -115.16781 2153 ft 8 kts 250°
2026-05-06 23:45 36.08275 -115.16852 2158 ft 9 kts 247°
2026-05-06 23:46 36.08189 -115.16903 2161 ft 18 kts 206°
2026-05-06 23:46 36.08148 -115.16989 2164 ft 11 kts 271°
2026-05-06 23:46 36.08141 -115.17043 2162 ft 3 kts 204°
2026-05-06 23:46 36.08123 -115.17043 2166 ft 0 kts 177°
2026-05-06 23:47 36.08122 -115.17043 2166 ft 0 kts 168°
2026-05-06 23:47 36.08121 -115.17040 2166 ft 1 kts 94°
2026-05-06 23:48 36.08127 -115.17004 2165 ft 4 kts 162°
2026-05-06 23:48 36.08106 -115.17010 2161 ft 3 kts 243°
2026-05-06 23:48 36.08105 -115.17024 2165 ft 1 kts 266°
2026-05-06 23:48 36.08104 -115.17027 2165 ft 0 kts 266°